RYR7589 LGSA-EPWR

Flight info

Callsign RYR7589
Flight time 2h 37m
Altitude 40000
Route SOKRI UY151 VELOP DCT DDM DCT KUGGI DCT SKP DCT MAKED DCT LONTA UM749 UDVAR DCT VASER DCT PARAK DCT LITKU DCT REGLI L617 EPOPA
Aircraft B38M/M-SADE3FGILRWY/SB1

Departure

Time 2026-05-05 13:02
Airport Chania International Airport (LGSA)

Arrival

Time 2026-05-05 15:39
Airport Copernicus Wrocław Airport (EPWR)
Time Latitude Longitude Altitude Speed Heading
2026-05-05 12:37 35.53930 24.13866 559 ft 0 kts 21°
2026-05-05 12:51 35.53920 24.13861 565 ft 4 kts 17°
2026-05-05 12:52 35.53894 24.13854 561 ft 4 kts 18°
2026-05-05 12:52 35.53872 24.13845 566 ft 4 kts
2026-05-05 12:52 35.53850 24.13853 559 ft 4 kts 311°
2026-05-05 12:52 35.53838 24.13881 568 ft 4 kts 288°
2026-05-05 12:53 35.53831 24.13904 565 ft 0 kts 292°
2026-05-05 12:56 35.53832 24.13902 565 ft 1 kts 292°
2026-05-05 12:56 35.53836 24.13866 569 ft 8 kts 253°
2026-05-05 12:56 35.53768 24.13819 560 ft 15 kts 182°
2026-05-05 12:56 35.53705 24.13917 567 ft 17 kts 111°
2026-05-05 12:57 35.53658 24.14063 563 ft 20 kts 112°
2026-05-05 12:57 35.53602 24.14232 563 ft 23 kts 111°
2026-05-05 12:57 35.53540 24.14424 559 ft 26 kts 111°
2026-05-05 12:57 35.53472 24.14633 563 ft 24 kts 112°
2026-05-05 12:58 35.53414 24.14813 566 ft 24 kts 111°
2026-05-05 12:58 35.53350 24.15010 564 ft 26 kts 111°
2026-05-05 12:58 35.53280 24.15224 559 ft 28 kts 111°
2026-05-05 12:58 35.53209 24.15442 560 ft 25 kts 112°
2026-05-05 12:59 35.53144 24.15643 567 ft 26 kts 111°
2026-05-05 12:59 35.53076 24.15851 559 ft 27 kts 112°
2026-05-05 12:59 35.53009 24.16057 559 ft 25 kts 111°
2026-05-05 13:00 35.52903 24.16386 563 ft 23 kts 111°
2026-05-05 13:00 35.52842 24.16575 564 ft 24 kts 111°
2026-05-05 13:01 35.52640 24.16849 562 ft 14 kts 202°
2026-05-05 13:01 35.52594 24.16765 559 ft 14 kts 285°
2026-05-05 13:01 35.52635 24.16638 564 ft 22 kts 292°
2026-05-05 13:01 35.52768 24.16230 561 ft 86 kts 292°
2026-05-05 13:02 35.53065 24.15316 568 ft 141 kts 291°
2026-05-05 13:02 35.53462 24.14118 937 ft 158 kts 293°
2026-05-05 13:02 35.53889 24.12822 1502 ft 165 kts 292°
2026-05-05 13:02 35.54319 24.11498 2283 ft 171 kts 294°
2026-05-05 13:03 35.54785 24.10053 2827 ft 195 kts 294°
2026-05-05 13:03 35.55464 24.08509 3423 ft 216 kts 319°
2026-05-05 13:03 35.56744 24.07745 4549 ft 206 kts 348°
2026-05-05 13:03 35.58208 24.07659 5398 ft 216 kts
2026-05-05 13:04 35.59724 24.07891 6338 ft 220 kts
2026-05-05 13:04 35.61243 24.08114 7254 ft 223 kts
2026-05-05 13:04 35.62835 24.07887 7845 ft 244 kts 339°
2026-05-05 13:04 35.64321 24.06719 8396 ft 264 kts 323°
2026-05-05 13:05 35.65816 24.05292 9057 ft 278 kts 323°
2026-05-05 13:05 35.67335 24.03836 10091 ft 276 kts 323°
2026-05-05 13:05 35.68882 24.02345 10721 ft 291 kts 323°
2026-05-05 13:05 35.70508 24.00773 11347 ft 303 kts 322°
2026-05-05 13:06 35.72177 23.99156 12252 ft 305 kts 322°
2026-05-05 13:06 35.73854 23.97529 13204 ft 309 kts 322°
2026-05-05 13:06 35.75552 23.95881 14144 ft 312 kts 322°
2026-05-05 13:06 35.77263 23.94221 15050 ft 314 kts 322°
2026-05-05 13:07 35.78984 23.92548 15970 ft 316 kts 322°
2026-05-05 13:07 35.80716 23.90864 16866 ft 319 kts 322°
2026-05-05 13:07 35.82462 23.89166 17748 ft 322 kts 322°
2026-05-05 13:07 35.84227 23.87448 18585 ft 324 kts 322°
2026-05-05 13:08 35.85979 23.85741 19300 ft 327 kts 322°
2026-05-05 13:08 35.87794 23.83973 20031 ft 330 kts 322°
2026-05-05 13:08 35.89600 23.82211 20730 ft 332 kts 322°
2026-05-05 13:08 35.91395 23.80460 21419 ft 335 kts 322°
2026-05-05 13:09 35.93258 23.78641 22113 ft 338 kts 322°
2026-05-05 13:09 35.95107 23.76834 22801 ft 341 kts 322°
2026-05-05 13:09 35.96948 23.75035 23471 ft 343 kts 322°
2026-05-05 13:09 35.98830 23.73194 24046 ft 346 kts 322°
2026-05-05 13:10 36.00736 23.71358 24601 ft 349 kts 322°
2026-05-05 13:10 36.02656 23.69513 25155 ft 351 kts 322°
2026-05-05 13:10 36.04587 23.67657 25691 ft 353 kts 322°
2026-05-05 13:10 36.06530 23.65787 26218 ft 355 kts 322°
2026-05-05 13:11 36.08484 23.63905 26755 ft 357 kts 322°
2026-05-05 13:11 36.10450 23.62009 27248 ft 360 kts 322°
2026-05-05 13:11 36.12435 23.60095 27745 ft 363 kts 322°
2026-05-05 13:11 36.14428 23.58171 28251 ft 365 kts 322°
2026-05-05 13:12 36.16435 23.56234 28727 ft 367 kts 322°
2026-05-05 13:12 36.18457 23.54279 29195 ft 370 kts 322°
2026-05-05 13:12 36.20491 23.52312 29671 ft 372 kts 322°
2026-05-05 13:12 36.22536 23.50333 30125 ft 375 kts 322°
2026-05-05 13:13 36.24622 23.48380 30495 ft 377 kts 327°
2026-05-05 13:13 36.27044 23.47106 30877 ft 382 kts 344°
2026-05-05 13:13 36.29672 23.46509 31252 ft 386 kts 346°
2026-05-05 13:13 36.32329 23.45904 31578 ft 389 kts 346°
2026-05-05 13:14 36.35002 23.45320 31942 ft 392 kts 347°
2026-05-05 13:14 36.37700 23.44748 32298 ft 394 kts 347°
2026-05-05 13:14 36.40412 23.44182 32646 ft 397 kts 347°
2026-05-05 13:14 36.43144 23.43616 32990 ft 400 kts 347°
2026-05-05 13:15 36.45899 23.43047 33331 ft 402 kts 347°
2026-05-05 13:15 36.48631 23.42482 33655 ft 405 kts 347°
2026-05-05 13:15 36.51417 23.41905 34019 ft 406 kts 347°
2026-05-05 13:15 36.54205 23.41327 34422 ft 406 kts 347°
2026-05-05 13:16 36.56990 23.40751 34819 ft 406 kts 347°
2026-05-05 13:16 36.59771 23.40174 35199 ft 405 kts 347°
2026-05-05 13:16 36.62549 23.39598 35578 ft 405 kts 346°
2026-05-05 13:16 36.65325 23.39021 35944 ft 404 kts 346°
2026-05-05 13:17 36.68100 23.38444 36300 ft 404 kts 346°
2026-05-05 13:17 36.70875 23.37867 36660 ft 404 kts 346°
2026-05-05 13:17 36.73642 23.37291 37003 ft 403 kts 346°
2026-05-05 13:17 36.76409 23.36715 37330 ft 403 kts 346°
2026-05-05 13:18 36.79174 23.36139 37652 ft 403 kts 346°
2026-05-05 13:18 36.81936 23.35563 37979 ft 403 kts 346°
2026-05-05 13:18 36.84703 23.34986 38277 ft 402 kts 346°
2026-05-05 13:18 36.87460 23.34410 38574 ft 402 kts 346°
2026-05-05 13:19 36.90221 23.33834 38838 ft 402 kts 346°
2026-05-05 13:19 36.92979 23.33258 39039 ft 402 kts 346°
2026-05-05 13:19 36.95747 23.32678 39226 ft 403 kts 346°
2026-05-05 13:19 36.98513 23.32099 39406 ft 404 kts 346°
2026-05-05 13:20 37.01284 23.31519 39581 ft 404 kts 346°
2026-05-05 13:20 37.04064 23.30936 39754 ft 405 kts 346°
2026-05-05 13:20 37.06840 23.30354 39917 ft 406 kts 346°
2026-05-05 13:20 37.09629 23.29768 40058 ft 406 kts 346°
2026-05-05 13:21 37.15215 23.28598 40076 ft 406 kts 346°
2026-05-05 13:21 37.20742 23.27434 40075 ft 406 kts 346°
2026-05-05 13:22 37.26308 23.26260 40070 ft 406 kts 346°
2026-05-05 13:22 37.31878 23.25083 40073 ft 406 kts 346°
2026-05-05 13:23 37.37441 23.23907 40076 ft 406 kts 346°
2026-05-05 13:23 37.43010 23.22727 40071 ft 406 kts 346°
2026-05-05 13:24 37.45824 23.22364 40048 ft 411 kts 358°
2026-05-05 13:24 37.48660 23.22982 40070 ft 421 kts 13°
2026-05-05 13:24 37.54050 23.26157 40061 ft 430 kts 20°
2026-05-05 13:25 37.59349 23.29676 40059 ft 431 kts 21°
2026-05-05 13:25 37.64626 23.33279 40061 ft 431 kts 22°
2026-05-05 13:26 37.69894 23.36902 40053 ft 430 kts 22°
2026-05-05 13:26 37.75146 23.40520 40068 ft 431 kts 22°
2026-05-05 13:27 37.80564 23.43401 40051 ft 412 kts
2026-05-05 13:27 37.86257 23.44343 40052 ft 413 kts
2026-05-05 13:28 37.88152 23.44621 40055 ft 413 kts
2026-05-05 13:28 37.97420 23.45863 40053 ft 413 kts
2026-05-05 13:29 38.03133 23.46597 40052 ft 412 kts
2026-05-05 13:29 38.08838 23.47330 40053 ft 412 kts
2026-05-05 13:30 38.14545 23.48065 40051 ft 412 kts
2026-05-05 13:30 38.20235 23.48798 40052 ft 411 kts
2026-05-05 13:31 38.25917 23.49532 40057 ft 410 kts
2026-05-05 13:31 38.31597 23.50267 40052 ft 410 kts
2026-05-05 13:32 38.37278 23.51002 40056 ft 410 kts
2026-05-05 13:32 38.42959 23.51739 40055 ft 410 kts
2026-05-05 13:33 38.48644 23.52478 40066 ft 411 kts
2026-05-05 13:33 38.54290 23.53213 40054 ft 410 kts
2026-05-05 13:34 38.59965 23.53952 40054 ft 410 kts
2026-05-05 13:34 38.65649 23.54694 40058 ft 411 kts
2026-05-05 13:35 38.71333 23.55437 40047 ft 410 kts
2026-05-05 13:35 38.77003 23.56180 40060 ft 410 kts
2026-05-05 13:36 38.82676 23.56924 40056 ft 410 kts
2026-05-05 13:36 38.88352 23.57670 40045 ft 410 kts
2026-05-05 13:37 38.94022 23.58416 40040 ft 410 kts
2026-05-05 13:37 38.99689 23.59163 40035 ft 410 kts
2026-05-05 13:38 39.05362 23.59912 40029 ft 410 kts
2026-05-05 13:38 39.11002 23.60657 40028 ft 410 kts
2026-05-05 13:39 39.16707 23.61238 40002 ft 404 kts 351°
2026-05-05 13:39 39.19372 23.60480 40033 ft 395 kts 337°
2026-05-05 13:39 39.21990 23.59222 40009 ft 398 kts 337°
2026-05-05 13:40 39.27099 23.56593 40027 ft 398 kts 335°
2026-05-05 13:40 39.32208 23.53834 40029 ft 398 kts 335°
2026-05-05 13:41 39.37305 23.51039 40033 ft 398 kts 335°
2026-05-05 13:41 39.42398 23.48235 40037 ft 398 kts 335°
2026-05-05 13:42 39.47494 23.45425 40028 ft 398 kts 335°
2026-05-05 13:42 39.52588 23.42612 40038 ft 398 kts 335°
2026-05-05 13:43 39.57687 23.39791 40040 ft 398 kts 335°
2026-05-05 13:43 39.62780 23.36968 40038 ft 398 kts 335°
2026-05-05 13:44 39.67872 23.34143 40034 ft 398 kts 335°
2026-05-05 13:44 39.72971 23.31308 40033 ft 398 kts 335°
2026-05-05 13:45 39.78063 23.28473 40031 ft 398 kts 335°
2026-05-05 13:45 39.83127 23.25649 40030 ft 398 kts 335°
2026-05-05 13:46 39.88220 23.22804 40027 ft 399 kts 335°
2026-05-05 13:46 39.93317 23.19952 40035 ft 399 kts 335°
2026-05-05 13:47 39.98413 23.17096 40027 ft 399 kts 335°
2026-05-05 13:47 40.03507 23.14237 40028 ft 399 kts 334°
2026-05-05 13:48 40.08608 23.11369 40029 ft 399 kts 334°
2026-05-05 13:48 40.13706 23.08498 40020 ft 399 kts 334°
2026-05-05 13:49 40.18804 23.05622 40018 ft 399 kts 334°
2026-05-05 13:49 40.23910 23.02737 40010 ft 399 kts 334°
2026-05-05 13:50 40.29011 22.99850 40006 ft 400 kts 334°
2026-05-05 13:50 40.34119 22.96955 40002 ft 400 kts 334°
2026-05-05 13:51 40.39225 22.94055 39993 ft 400 kts 334°
2026-05-05 13:51 40.44336 22.91148 39994 ft 400 kts 334°
2026-05-05 13:52 40.49448 22.88236 39993 ft 400 kts 334°
2026-05-05 13:52 40.54560 22.85319 39991 ft 401 kts 334°
2026-05-05 13:53 40.59671 22.82397 39997 ft 401 kts 334°
2026-05-05 13:53 40.64796 22.79463 39995 ft 401 kts 334°
2026-05-05 13:54 40.69917 22.76526 39995 ft 402 kts 334°
2026-05-05 13:54 40.75036 22.73585 40003 ft 402 kts 334°
2026-05-05 13:55 40.80167 22.70632 39999 ft 402 kts 334°
2026-05-05 13:55 40.85296 22.67676 39993 ft 402 kts 334°
2026-05-05 13:56 40.90423 22.64715 39998 ft 403 kts 334°
2026-05-05 13:56 40.95559 22.61745 40001 ft 403 kts 334°
2026-05-05 13:57 41.00662 22.58789 40002 ft 403 kts 334°
2026-05-05 13:57 41.05799 22.55809 40004 ft 403 kts 334°
2026-05-05 13:58 41.10939 22.52822 40007 ft 403 kts 334°
2026-05-05 13:58 41.13379 22.51032 39997 ft 400 kts 321°
2026-05-05 13:58 41.14837 22.49471 40017 ft 400 kts 321°
2026-05-05 13:59 41.21417 22.42596 40013 ft 401 kts 321°
2026-05-05 14:00 41.27946 22.35630 40009 ft 401 kts 320°
2026-05-05 14:00 41.32291 22.30976 40015 ft 402 kts 320°
2026-05-05 14:01 41.36642 22.26306 40019 ft 402 kts 320°
2026-05-05 14:01 41.40996 22.21625 40011 ft 402 kts 320°
2026-05-05 14:02 41.45349 22.16938 40016 ft 402 kts 320°
2026-05-05 14:02 41.49698 22.12245 40017 ft 402 kts 320°
2026-05-05 14:03 41.54047 22.07546 40020 ft 402 kts 320°
2026-05-05 14:03 41.58390 22.02843 40011 ft 402 kts 320°
2026-05-05 14:04 41.62709 21.98159 40016 ft 402 kts 320°
2026-05-05 14:04 41.67056 21.93436 40000 ft 402 kts 320°
2026-05-05 14:05 41.71396 21.88712 40009 ft 402 kts 320°
2026-05-05 14:05 41.75727 21.83989 40022 ft 402 kts 320°
2026-05-05 14:06 41.80064 21.79251 40017 ft 402 kts 320°
2026-05-05 14:06 41.84397 21.74508 40018 ft 402 kts 320°
2026-05-05 14:07 41.88729 21.69758 40022 ft 403 kts 320°
2026-05-05 14:07 41.93068 21.64993 40025 ft 403 kts 320°
2026-05-05 14:08 41.97407 21.60219 40017 ft 403 kts 320°
2026-05-05 14:08 42.01749 21.55432 40023 ft 404 kts 319°
2026-05-05 14:09 42.06090 21.50639 40021 ft 404 kts 319°
2026-05-05 14:09 42.10436 21.45833 40019 ft 404 kts 319°
2026-05-05 14:10 42.14817 21.41086 40008 ft 405 kts 327°
2026-05-05 14:10 42.17375 21.39504 40014 ft 408 kts 340°
2026-05-05 14:10 42.20095 21.38372 40014 ft 411 kts 340°
2026-05-05 14:11 42.25590 21.36214 40011 ft 411 kts 341°
2026-05-05 14:11 42.31114 21.34144 40016 ft 413 kts 342°
2026-05-05 14:12 42.36652 21.32096 40025 ft 413 kts 342°
2026-05-05 14:12 42.42195 21.30045 40029 ft 414 kts 342°
2026-05-05 14:13 42.47757 21.27984 40038 ft 414 kts 342°
2026-05-05 14:13 42.53313 21.25921 40036 ft 414 kts 342°
2026-05-05 14:14 42.58838 21.23866 40039 ft 414 kts 342°
2026-05-05 14:14 42.64403 21.21793 40041 ft 415 kts 342°
2026-05-05 14:15 42.69971 21.19714 40037 ft 416 kts 342°
2026-05-05 14:15 42.75549 21.17628 40035 ft 416 kts 342°
2026-05-05 14:16 42.81135 21.15535 40022 ft 416 kts 342°
2026-05-05 14:16 42.86724 21.13436 40015 ft 417 kts 342°
2026-05-05 14:17 42.92321 21.11331 40009 ft 417 kts 342°
2026-05-05 14:17 42.97919 21.09222 40005 ft 417 kts 342°
2026-05-05 14:18 43.03514 21.07110 40003 ft 418 kts 342°
2026-05-05 14:18 43.09122 21.04989 39998 ft 418 kts 342°
2026-05-05 14:19 43.14822 21.03275 40007 ft 421 kts 346°
2026-05-05 14:19 43.20565 21.01704 39994 ft 421 kts 346°
2026-05-05 14:20 43.26301 21.00101 39994 ft 421 kts 346°
2026-05-05 14:20 43.32048 20.98488 39987 ft 422 kts 346°
2026-05-05 14:21 43.37804 20.96869 39969 ft 422 kts 346°
2026-05-05 14:21 43.43556 20.95247 39990 ft 423 kts 346°
2026-05-05 14:22 43.49319 20.93620 39981 ft 423 kts 346°
2026-05-05 14:22 43.55084 20.91989 39973 ft 423 kts 346°
2026-05-05 14:23 43.60857 20.90352 39972 ft 424 kts 346°
2026-05-05 14:23 43.66628 20.88714 39970 ft 424 kts 346°
2026-05-05 14:24 43.72411 20.87068 39970 ft 424 kts 346°
2026-05-05 14:24 43.78195 20.85418 39971 ft 425 kts 346°
2026-05-05 14:25 43.83981 20.83765 39970 ft 425 kts 346°
2026-05-05 14:25 43.89772 20.82107 39969 ft 425 kts 346°
2026-05-05 14:26 43.95556 20.80448 39970 ft 425 kts 346°
2026-05-05 14:26 44.01319 20.78792 39967 ft 426 kts 346°
2026-05-05 14:27 44.07122 20.77120 39966 ft 426 kts 346°
2026-05-05 14:27 44.12931 20.75444 39970 ft 427 kts 346°
2026-05-05 14:28 44.18741 20.73764 39968 ft 427 kts 346°
2026-05-05 14:28 44.24554 20.72079 39960 ft 427 kts 346°
2026-05-05 14:29 44.30375 20.70390 39964 ft 427 kts 346°
2026-05-05 14:29 44.36192 20.68697 39964 ft 427 kts 346°
2026-05-05 14:30 44.42019 20.66999 39965 ft 427 kts 346°
2026-05-05 14:30 44.47836 20.65301 39964 ft 428 kts 346°
2026-05-05 14:31 44.53659 20.63557 39964 ft 427 kts 345°
2026-05-05 14:31 44.59456 20.61663 39963 ft 428 kts 345°
2026-05-05 14:32 44.65262 20.59781 39964 ft 428 kts 345°
2026-05-05 14:32 44.71060 20.57899 39965 ft 428 kts 345°
2026-05-05 14:33 44.76873 20.56008 39966 ft 429 kts 345°
2026-05-05 14:33 44.82683 20.54114 39969 ft 429 kts 345°
2026-05-05 14:34 44.88497 20.52216 39966 ft 429 kts 345°
2026-05-05 14:34 44.94321 20.50309 39966 ft 429 kts 345°
2026-05-05 14:35 45.00144 20.48400 39961 ft 430 kts 345°
2026-05-05 14:35 45.05966 20.46486 39963 ft 430 kts 345°
2026-05-05 14:36 45.11798 20.44566 39959 ft 430 kts 345°
2026-05-05 14:36 45.17626 20.42642 39951 ft 430 kts 345°
2026-05-05 14:37 45.23465 20.40711 39951 ft 431 kts 345°
2026-05-05 14:37 45.29302 20.38777 39943 ft 431 kts 345°
2026-05-05 14:38 45.35109 20.36848 39943 ft 431 kts 345°
2026-05-05 14:38 45.40958 20.34901 39940 ft 432 kts 345°
2026-05-05 14:39 45.46849 20.32936 39940 ft 432 kts 345°
2026-05-05 14:39 45.52706 20.30978 39938 ft 432 kts 345°
2026-05-05 14:40 45.58558 20.29018 39933 ft 432 kts 345°
2026-05-05 14:40 45.64419 20.27050 39934 ft 433 kts 345°
2026-05-05 14:41 45.70241 20.25092 39934 ft 433 kts 345°
2026-05-05 14:41 45.76114 20.23112 39933 ft 433 kts 345°
2026-05-05 14:42 45.81985 20.21128 39934 ft 434 kts 345°
2026-05-05 14:42 45.87858 20.19140 39928 ft 434 kts 345°
2026-05-05 14:43 45.93734 20.17146 39926 ft 434 kts 345°
2026-05-05 14:43 45.99617 20.15145 39926 ft 434 kts 345°
2026-05-05 14:44 46.05497 20.13142 39928 ft 435 kts 345°
2026-05-05 14:44 46.10390 20.11471 39925 ft 435 kts 345°
2026-05-05 14:45 46.16284 20.09508 39922 ft 435 kts 349°
2026-05-05 14:45 46.22283 20.08222 39931 ft 436 kts 349°
2026-05-05 14:46 46.28272 20.06849 39925 ft 436 kts 349°
2026-05-05 14:46 46.34262 20.05457 39926 ft 436 kts 349°
2026-05-05 14:47 46.40260 20.04057 39921 ft 436 kts 349°
2026-05-05 14:47 46.46253 20.02656 39926 ft 436 kts 349°
2026-05-05 14:48 46.52246 20.01252 39926 ft 437 kts 349°
2026-05-05 14:48 46.58243 19.99843 39921 ft 437 kts 349°
2026-05-05 14:49 46.64240 19.98432 39917 ft 437 kts 349°
2026-05-05 14:49 46.70241 19.97016 39922 ft 437 kts 349°
2026-05-05 14:50 46.76244 19.95597 39933 ft 437 kts 349°
2026-05-05 14:50 46.82246 19.94174 39936 ft 437 kts 349°
2026-05-05 14:51 46.88250 19.92748 39935 ft 437 kts 349°
2026-05-05 14:51 46.94253 19.91319 39931 ft 437 kts 349°
2026-05-05 14:52 47.00253 19.89887 39942 ft 437 kts 349°
2026-05-05 14:52 47.06262 19.88450 39940 ft 437 kts 349°
2026-05-05 14:53 47.12266 19.87011 39938 ft 437 kts 349°
2026-05-05 14:53 47.18271 19.85568 39923 ft 437 kts 349°
2026-05-05 14:54 47.24284 19.84121 39926 ft 438 kts 349°
2026-05-05 14:54 47.30297 19.82670 39917 ft 438 kts 349°
2026-05-05 14:55 47.36309 19.81215 39919 ft 438 kts 348°
2026-05-05 14:55 47.42317 19.79758 39925 ft 438 kts 348°
2026-05-05 14:56 47.48330 19.78297 39921 ft 438 kts 348°
2026-05-05 14:56 47.54346 19.76831 39918 ft 438 kts 348°
2026-05-05 14:57 47.60363 19.75363 39920 ft 438 kts 348°
2026-05-05 14:57 47.66382 19.73890 39924 ft 438 kts 348°
2026-05-05 14:58 47.72405 19.72412 39923 ft 438 kts 348°
2026-05-05 14:58 47.78421 19.70933 39919 ft 438 kts 348°
2026-05-05 14:59 47.84440 19.69450 39921 ft 438 kts 348°
2026-05-05 14:59 47.90450 19.67965 39919 ft 438 kts 348°
2026-05-05 15:00 47.95435 19.66731 39923 ft 438 kts 348°
2026-05-05 15:00 48.02480 19.64983 39920 ft 438 kts 348°
2026-05-05 15:01 48.08454 19.63497 39919 ft 438 kts 348°
2026-05-05 15:01 48.14466 19.61999 39924 ft 438 kts 348°
2026-05-05 15:02 48.20484 19.60493 39917 ft 438 kts 347°
2026-05-05 15:02 48.23389 19.59236 39895 ft 432 kts 332°
2026-05-05 15:02 48.26026 19.57109 39922 ft 431 kts 329°
2026-05-05 15:03 48.31291 19.52765 39919 ft 432 kts 328°
2026-05-05 15:03 48.36525 19.48311 39913 ft 432 kts 328°
2026-05-05 15:04 48.41739 19.43830 39918 ft 432 kts 328°
2026-05-05 15:04 48.46954 19.39333 39911 ft 432 kts 327°
2026-05-05 15:05 48.54774 19.32572 39917 ft 432 kts 327°
2026-05-05 15:06 48.59981 19.28055 39917 ft 432 kts 328°
2026-05-05 15:06 48.65192 19.23524 39914 ft 432 kts 327°
2026-05-05 15:07 48.70406 19.18981 39913 ft 432 kts 328°
2026-05-05 15:07 48.75610 19.14433 39911 ft 432 kts 327°
2026-05-05 15:08 48.80816 19.09876 39911 ft 432 kts 327°
2026-05-05 15:08 48.86018 19.05308 39909 ft 432 kts 327°
2026-05-05 15:09 48.91219 19.00731 39900 ft 432 kts 327°
2026-05-05 15:09 48.96413 18.96151 39899 ft 432 kts 327°
2026-05-05 15:10 49.01612 18.91552 39885 ft 432 kts 327°
2026-05-05 15:10 49.06810 18.86943 39872 ft 432 kts 327°
2026-05-05 15:11 49.11982 18.82349 39471 ft 426 kts 327°
2026-05-05 15:11 49.14541 18.80071 38828 ft 427 kts 327°
2026-05-05 15:11 49.17114 18.77776 38139 ft 428 kts 327°
2026-05-05 15:11 49.19682 18.75486 37527 ft 426 kts 327°
2026-05-05 15:12 49.22224 18.73214 37052 ft 421 kts 327°
2026-05-05 15:12 49.24739 18.70964 36577 ft 417 kts 327°
2026-05-05 15:12 49.27229 18.68733 36074 ft 414 kts 327°
2026-05-05 15:12 49.29672 18.66543 35576 ft 411 kts 326°
2026-05-05 15:13 49.32164 18.64307 35083 ft 409 kts 326°
2026-05-05 15:13 49.34613 18.62106 34597 ft 407 kts 326°
2026-05-05 15:13 49.37048 18.59915 34113 ft 405 kts 326°
2026-05-05 15:13 49.39439 18.57760 33615 ft 403 kts 326°
2026-05-05 15:14 49.41852 18.55583 33090 ft 401 kts 326°
2026-05-05 15:14 49.44246 18.53422 32617 ft 398 kts 326°
2026-05-05 15:14 49.46625 18.51273 32169 ft 395 kts 326°
2026-05-05 15:14 49.48983 18.49138 31716 ft 392 kts 326°
2026-05-05 15:15 49.51330 18.47012 31267 ft 390 kts 326°
2026-05-05 15:15 49.53658 18.44900 30821 ft 388 kts 326°
2026-05-05 15:15 49.55977 18.42794 30379 ft 386 kts 327°
2026-05-05 15:15 49.58279 18.40701 29946 ft 384 kts 327°
2026-05-05 15:16 49.60579 18.38608 29454 ft 382 kts 327°
2026-05-05 15:16 49.62859 18.36531 29005 ft 380 kts 327°
2026-05-05 15:16 49.65126 18.34464 28583 ft 376 kts 327°
2026-05-05 15:16 49.67368 18.32417 28174 ft 373 kts 327°
2026-05-05 15:17 49.69596 18.30380 27770 ft 370 kts 327°
2026-05-05 15:17 49.71804 18.28360 27353 ft 368 kts 326°
2026-05-05 15:17 49.73993 18.26355 26965 ft 365 kts 326°
2026-05-05 15:17 49.76174 18.24355 26579 ft 363 kts 327°
2026-05-05 15:18 49.78335 18.22371 26184 ft 361 kts 326°
2026-05-05 15:18 49.80487 18.20393 25802 ft 359 kts 327°
2026-05-05 15:18 49.82627 18.18425 25429 ft 357 kts 327°
2026-05-05 15:18 49.84753 18.16468 25038 ft 355 kts 326°
2026-05-05 15:19 49.86876 18.14511 24668 ft 354 kts 326°
2026-05-05 15:19 49.88986 18.12566 24282 ft 353 kts 326°
2026-05-05 15:19 49.91092 18.10621 23908 ft 351 kts 326°
2026-05-05 15:19 49.93189 18.08683 23526 ft 350 kts 327°
2026-05-05 15:20 49.95280 18.06749 23112 ft 349 kts 327°
2026-05-05 15:20 49.97358 18.04825 22693 ft 347 kts 327°
2026-05-05 15:20 49.99426 18.02908 22324 ft 344 kts 327°
2026-05-05 15:20 50.01477 18.01006 21953 ft 342 kts 326°
2026-05-05 15:21 50.03547 17.99222 21547 ft 342 kts 335°
2026-05-05 15:21 50.05786 17.97955 21164 ft 341 kts 337°
2026-05-05 15:21 50.08002 17.96686 20815 ft 338 kts 337°
2026-05-05 15:21 50.10198 17.95423 20463 ft 336 kts 337°
2026-05-05 15:22 50.12385 17.94160 20108 ft 334 kts 337°
2026-05-05 15:22 50.14561 17.92903 19755 ft 333 kts 337°
2026-05-05 15:22 50.16726 17.91650 19406 ft 331 kts 337°
2026-05-05 15:22 50.18884 17.90399 19047 ft 330 kts 337°
2026-05-05 15:23 50.21034 17.89152 18698 ft 329 kts 337°
2026-05-05 15:23 50.23177 17.87909 18340 ft 328 kts 337°
2026-05-05 15:23 50.25316 17.86666 17968 ft 328 kts 337°
2026-05-05 15:23 50.27450 17.85426 17580 ft 327 kts 337°
2026-05-05 15:24 50.29574 17.84190 17219 ft 324 kts 337°
2026-05-05 15:24 50.31680 17.82962 16851 ft 322 kts 337°
2026-05-05 15:24 50.33747 17.81758 16524 ft 320 kts 336°
2026-05-05 15:24 50.35832 17.80541 16183 ft 319 kts 336°
2026-05-05 15:25 50.37833 17.79107 15773 ft 315 kts 326°
2026-05-05 15:25 50.39704 17.77337 15452 ft 313 kts 326°
2026-05-05 15:25 50.41584 17.75620 15126 ft 312 kts 327°
2026-05-05 15:25 50.43459 17.73931 14801 ft 310 kts 327°
2026-05-05 15:26 50.45335 17.72259 14468 ft 310 kts 327°
2026-05-05 15:26 50.47206 17.70599 14133 ft 309 kts 327°
2026-05-05 15:26 50.49080 17.68942 13797 ft 308 kts 327°
2026-05-05 15:26 50.50949 17.67290 13452 ft 308 kts 327°
2026-05-05 15:27 50.52818 17.65641 13076 ft 307 kts 327°
2026-05-05 15:27 50.54680 17.63995 12730 ft 306 kts 327°
2026-05-05 15:27 50.56527 17.62360 12399 ft 304 kts 327°
2026-05-05 15:27 50.58367 17.60731 12068 ft 303 kts 327°
2026-05-05 15:28 50.60198 17.59107 11736 ft 301 kts 327°
2026-05-05 15:28 50.62017 17.57493 11420 ft 299 kts 327°
2026-05-05 15:28 50.63824 17.55889 11077 ft 298 kts 327°
2026-05-05 15:28 50.65627 17.54286 10795 ft 296 kts 327°
2026-05-05 15:29 50.67410 17.52682 10489 ft 294 kts 327°
2026-05-05 15:29 50.69182 17.51088 10211 ft 291 kts 327°
2026-05-05 15:29 50.70932 17.49513 9947 ft 289 kts 327°
2026-05-05 15:29 50.72674 17.47943 9657 ft 287 kts 327°
2026-05-05 15:30 50.74402 17.46385 9348 ft 285 kts 327°
2026-05-05 15:30 50.75540 17.45360 9142 ft 284 kts 327°
2026-05-05 15:30 50.77249 17.43817 8853 ft 282 kts 327°
2026-05-05 15:30 50.78944 17.42285 8562 ft 279 kts 327°
2026-05-05 15:31 50.80626 17.40764 8281 ft 277 kts 328°
2026-05-05 15:31 50.82290 17.39259 8012 ft 275 kts 328°
2026-05-05 15:31 50.83959 17.37810 7713 ft 274 kts 335°
2026-05-05 15:31 50.85832 17.37374 7376 ft 277 kts
2026-05-05 15:32 50.87615 17.38431 7126 ft 274 kts 28°
2026-05-05 15:32 50.89295 17.39805 6910 ft 270 kts 27°
2026-05-05 15:32 50.90986 17.41008 6733 ft 264 kts 14°
2026-05-05 15:32 50.92783 17.40979 6479 ft 259 kts 341°
2026-05-05 15:33 50.94267 17.39492 6262 ft 252 kts 310°
2026-05-05 15:33 50.95178 17.37174 6036 ft 245 kts 295°
2026-05-05 15:33 50.95948 17.34778 5836 ft 243 kts 295°
2026-05-05 15:33 50.96727 17.32389 5562 ft 244 kts 296°
2026-05-05 15:34 50.97507 17.29997 5272 ft 244 kts 295°
2026-05-05 15:34 50.98259 17.27617 5057 ft 240 kts 295°
2026-05-05 15:34 50.98996 17.25256 4824 ft 238 kts 295°
2026-05-05 15:34 50.99725 17.22902 4547 ft 237 kts 295°
2026-05-05 15:35 51.00437 17.20596 4315 ft 235 kts 295°
2026-05-05 15:35 51.01156 17.18263 4074 ft 236 kts 295°
2026-05-05 15:35 51.01876 17.15925 3792 ft 236 kts 296°
2026-05-05 15:35 51.02594 17.13589 3533 ft 234 kts 296°
2026-05-05 15:36 51.03308 17.11268 3270 ft 233 kts 297°
2026-05-05 15:36 51.04010 17.08980 2984 ft 228 kts 297°
2026-05-05 15:36 51.04701 17.06720 2671 ft 226 kts 298°
2026-05-05 15:36 51.05383 17.04505 2388 ft 219 kts 299°
2026-05-05 15:37 51.06042 17.02359 2119 ft 214 kts 299°
2026-05-05 15:37 51.06687 17.00255 1829 ft 209 kts 298°
2026-05-05 15:37 51.07308 16.98222 1559 ft 196 kts 299°
2026-05-05 15:37 51.07877 16.96372 1372 ft 176 kts 299°
2026-05-05 15:38 51.08385 16.94708 1101 ft 158 kts 297°
2026-05-05 15:38 51.08837 16.93249 962 ft 139 kts 298°
2026-05-05 15:38 51.09251 16.91890 739 ft 133 kts 298°
2026-05-05 15:38 51.09656 16.90581 570 ft 131 kts 297°
2026-05-05 15:39 51.10059 16.89265 415 ft 132 kts 297°
2026-05-05 15:39 51.10393 16.88170 404 ft 76 kts 296°
2026-05-05 15:39 51.10548 16.87663 404 ft 38 kts 296°
2026-05-05 15:39 51.10657 16.87315 403 ft 22 kts 297°
2026-05-05 15:40 51.10711 16.87241 406 ft 9 kts 10°
2026-05-05 15:40 51.10779 16.87291 406 ft 13 kts 26°
2026-05-05 15:40 51.10872 16.87362 405 ft 17 kts 25°
2026-05-05 15:40 51.10947 16.87435 405 ft 10 kts 64°
2026-05-05 15:41 51.10924 16.87550 402 ft 13 kts 116°
2026-05-05 15:41 51.10880 16.87696 403 ft 16 kts 116°
2026-05-05 15:41 51.10844 16.87816 406 ft 4 kts 109°
2026-05-05 15:41 51.10860 16.87851 404 ft 5 kts 30°
2026-05-05 15:42 51.10889 16.87875 403 ft 4 kts 26°
2026-05-05 15:42 51.10900 16.87883 402 ft 0 kts 26°